| time (UTC) | temp F | wind direction | speed MPH | gust MPH | rain 1hr in | rain 24hr in | rain mn in | humidity % | barometer mb |
| 20260508122047 | 67 | 178 | 1.0 | 6.0 | 0.00 | 0.00 | 0.00 | 71 | 1011.1 |
| 20260508121545 | 67 | 186 | 2.0 | 6.0 | 0.00 | 0.00 | 0.00 | 72 | 1011.0 |
| 20260508121048 | 67 | 178 | 3.0 | 9.0 | 0.00 | 0.00 | 0.00 | 72 | 1011.0 |
| 20260508120544 | 67 | 218 | 1.0 | 8.0 | 0.00 | 0.00 | 0.00 | 72 | 1010.9 |
| 20260508120045 | 66 | 207 | 3.0 | 8.0 | 0.00 | 0.00 | 0.00 | 75 | 1010.9 |
| 20260508115548 | 66 | 182 | 4.0 | 9.0 | 0.00 | 0.00 | 0.00 | 78 | 1010.9 |
| 20260508115044 | 66 | 166 | 5.0 | 10.0 | 0.00 | 0.00 | 0.00 | 79 | 1010.9 |
| 20260508114544 | 66 | 152 | 2.0 | 9.0 | 0.00 | 0.00 | 0.00 | 79 | 1010.9 |
| 20260508114044 | 65 | 163 | 5.0 | 10.0 | 0.00 | 0.00 | 0.00 | 78 | 1010.9 |
| 20260508113544 | 66 | 180 | 6.0 | 11.0 | 0.00 | 0.00 | 0.00 | 80 | 1010.9 |
| 20260508113044 | 66 | 217 | 5.0 | 8.0 | 0.00 | 0.00 | 0.00 | 80 | 1011.0 |
| 20260508112545 | 66 | 177 | 2.0 | 9.0 | 0.00 | 0.00 | 0.00 | 80 | 1010.9 |
| 20260508112044 | 66 | 169 | 4.0 | 7.0 | 0.00 | 0.00 | 0.00 | 79 | 1010.9 |
| 20260508111544 | 66 | 167 | 1.0 | 7.0 | 0.00 | 0.00 | 0.00 | 79 | 1011.0 |
| 20260508111044 | 66 | 167 | 5.0 | 7.0 | 0.00 | 0.00 | 0.00 | 79 | 1011.0 |
| 20260508110544 | 66 | 180 | 3.0 | 6.0 | 0.00 | 0.00 | 0.00 | 78 | 1011.0 |
| 20260508110045 | 66 | 218 | 1.0 | 9.0 | 0.00 | 0.00 | 0.00 | 77 | 1011.0 |
| 20260508105544 | 66 | 225 | 2.0 | 9.0 | 0.00 | 0.00 | 0.00 | 75 | 1011.0 |
| 20260508105045 | 66 | 269 | 1.0 | 9.0 | 0.00 | 0.00 | 0.00 | 77 | 1010.9 |
| 20260508104544 | 66 | 162 | 4.0 | 10.0 | 0.00 | 0.00 | 0.00 | 77 | 1010.8 |
| 20260508104044 | 67 | 188 | 6.0 | 7.0 | 0.00 | 0.00 | 0.00 | 75 | 1010.8 |
| 20260508103544 | 66 | 258 | 4.0 | 10.0 | 0.00 | 0.00 | 0.00 | 73 | 1010.9 |
| 20260508103045 | 67 | 248 | 3.0 | 10.0 | 0.00 | 0.00 | 0.00 | 72 | 1010.9 |
| 20260508102545 | 67 | 239 | 4.0 | 8.0 | 0.00 | 0.00 | 0.00 | 73 | 1010.9 |
| 20260508102045 | 67 | 295 | 4.0 | 11.0 | 0.00 | 0.00 | 0.00 | 73 | 1010.9 |
| 20260508101545 | 67 | 170 | 4.0 | 7.0 | 0.00 | 0.00 | 0.00 | 71 | 1010.9 |
| 20260508101045 | 67 | 159 | 6.0 | 11.0 | 0.00 | 0.00 | 0.00 | 70 | 1010.9 |
| 20260508100545 | 67 | 153 | 10.0 | 16.0 | 0.00 | 0.00 | 0.00 | 67 | 1010.8 |
| 20260508100047 | 67 | 172 | 6.0 | 9.0 | 0.00 | 0.00 | 0.00 | 66 | 1010.8 |
| 20260508095545 | 67 | 216 | 7.0 | 10.0 | 0.00 | 0.00 | 0.00 | 66 | 1010.8 |
| 20260508095044 | 67 | 180 | 5.0 | 11.0 | 0.00 | 0.00 | 0.00 | 67 | 1010.7 |
| 20260508094545 | 67 | 153 | 9.0 | 12.0 | 0.00 | 0.00 | 0.00 | 67 | 1010.6 |
| 20260508094045 | 67 | 205 | 6.0 | 14.0 | 0.00 | 0.00 | 0.00 | 66 | 1010.6 |
| 20260508093545 | 67 | 219 | 3.0 | 19.0 | 0.00 | 0.00 | 0.00 | 66 | 1010.5 |
| 20260508093045 | 68 | 223 | 2.0 | 16.0 | 0.00 | 0.00 | 0.00 | 65 | 1010.4 |
| 20260508092547 | 68 | 172 | 14.0 | 15.0 | 0.00 | 0.00 | 0.00 | 64 | 1010.4 |
| 20260508092044 | 69 | 159 | 6.0 | 14.0 | 0.00 | 0.00 | 0.00 | 64 | 1010.3 |
| 20260508091545 | 69 | 183 | 10.0 | 12.0 | 0.00 | 0.00 | 0.00 | 65 | 1010.3 |
| 20260508091044 | 69 | 196 | 2.0 | 11.0 | 0.00 | 0.00 | 0.00 | 65 | 1010.2 |
| 20260508090544 | 69 | 169 | 5.0 | 14.0 | 0.00 | 0.00 | 0.00 | 64 | 1010.2 |
| 20260508090044 | 69 | 217 | 4.0 | 10.0 | 0.00 | 0.00 | 0.00 | 64 | 1010.2 |
| 20260508085545 | 69 | 164 | 6.0 | 14.0 | 0.00 | 0.00 | 0.00 | 64 | 1010.1 |
| 20260508085044 | 69 | 154 | 2.0 | 12.0 | 0.00 | 0.00 | 0.00 | 66 | 1010.1 |
| 20260508084544 | 69 | 220 | 6.0 | 12.0 | 0.00 | 0.00 | 0.00 | 65 | 1010.0 |
| 20260508084044 | 69 | 223 | 3.0 | 13.0 | 0.00 | 0.00 | 0.00 | 66 | 1010.0 |
| 20260508083547 | 69 | 195 | 3.0 | 12.0 | 0.00 | 0.00 | 0.00 | 67 | 1010.0 |
| 20260508083047 | 68 | 175 | 9.0 | 11.0 | 0.00 | 0.00 | 0.00 | 64 | 1010.0 |
| 20260508082547 | 68 | 174 | 3.0 | 11.0 | 0.00 | 0.00 | 0.00 | 64 | 1009.9 |
| 20260508082045 | 68 | 191 | 4.0 | 9.0 | 0.00 | 0.00 | 0.00 | 65 | 1009.9 |
| 20260508081547 | 68 | 167 | 5.0 | 9.0 | 0.00 | 0.00 | 0.00 | 64 | 1009.9 |
| 20260508081045 | 68 | 167 | 5.0 | 11.0 | 0.00 | 0.00 | 0.00 | 64 | 1009.8 |
| 20260508080545 | 68 | 143 | 13.0 | 14.0 | 0.00 | 0.00 | 0.00 | 63 | 1009.7 |
| 20260508080045 | 68 | 150 | 10.0 | 15.0 | 0.00 | 0.00 | 0.00 | 64 | 1009.7 |
| 20260508075545 | 68 | 147 | 10.0 | 13.0 | 0.00 | 0.00 | 0.00 | 64 | 1009.6 |
| 20260508075045 | 68 | 171 | 6.0 | 16.0 | 0.00 | 0.00 | 0.00 | 65 | 1009.6 |
| 20260508074545 | 68 | 187 | 7.0 | 16.0 | 0.00 | 0.00 | 0.00 | 65 | 1009.5 |
| 20260508074045 | 68 | 123 | 9.0 | 13.0 | 0.00 | 0.00 | 0.00 | 65 | 1009.5 |
| 20260508073545 | 68 | 152 | 4.0 | 12.0 | 0.00 | 0.00 | 0.00 | 66 | 1009.4 |
| 20260508073048 | 68 | 166 | 9.0 | 12.0 | 0.00 | 0.00 | 0.00 | 67 | 1009.4 |
| 20260508072544 | 67 | 157 | 6.0 | 15.0 | 0.00 | 0.00 | 0.00 | 68 | 1009.3 |
| 20260508072048 | 67 | 167 | 10.0 | 13.0 | 0.00 | 0.00 | 0.00 | 69 | 1009.2 |
| 20260508071545 | 67 | 180 | 8.0 | 16.0 | 0.00 | 0.00 | 0.00 | 70 | 1009.2 |
| 20260508071044 | 67 | 157 | 10.0 | 13.0 | 0.00 | 0.00 | 0.00 | 72 | 1009.1 |
| 20260508070547 | 67 | 180 | 3.0 | 11.0 | 0.00 | 0.00 | 0.00 | 73 | 1009.0 |
| 20260508070045 | 66 | 149 | 6.0 | 11.0 | 0.00 | 0.00 | 0.00 | 74 | 1009.0 |
| 20260508065545 | 66 | 145 | 6.0 | 12.0 | 0.00 | 0.00 | 0.00 | 75 | 1009.1 |
| 20260508065047 | 66 | 180 | 4.0 | 10.0 | 0.00 | 0.00 | 0.00 | 75 | 1009.0 |
| 20260508064544 | 66 | 141 | 10.0 | 10.0 | 0.00 | 0.00 | 0.00 | 75 | 1009.1 |
| 20260508064044 | 66 | 167 | 6.0 | 11.0 | 0.00 | 0.00 | 0.00 | 75 | 1009.0 |
| 20260508063544 | 66 | 151 | 5.0 | 10.0 | 0.00 | 0.00 | 0.00 | 74 | 1008.9 |
| 20260508063044 | 65 | 154 | 4.0 | 8.0 | 0.00 | 0.00 | 0.00 | 75 | 1008.9 |
| 20260508062545 | 65 | 159 | 5.0 | 6.0 | 0.00 | 0.00 | 0.00 | 75 | 1008.9 |
| 20260508062044 | 65 | 157 | 5.0 | 7.0 | 0.00 | 0.00 | 0.00 | 75 | 1008.8 |
| 20260508061545 | 65 | 159 | 4.0 | 7.0 | 0.00 | 0.00 | 0.00 | 75 | 1008.8 |
| 20260508061044 | 65 | 159 | 2.0 | 7.0 | 0.00 | 0.00 | 0.00 | 75 | 1008.8 |
| 20260508060544 | 65 | 156 | 2.0 | 5.0 | 0.00 | 0.00 | 0.00 | 74 | 1008.8 |
| 20260508060047 | 65 | 155 | 3.0 | 7.0 | 0.00 | 0.00 | 0.00 | 74 | 1008.7 |
| 20260508055544 | 65 | 155 | 2.0 | 6.0 | 0.00 | 0.00 | 0.00 | 74 | 1008.7 |
| 20260508055045 | 64 | 155 | 2.0 | 8.0 | 0.00 | 0.00 | 0.00 | 74 | 1008.6 |
| 20260508054544 | 64 | 146 | 6.0 | 6.0 | 0.00 | 0.00 | 0.00 | 74 | 1008.6 |
| 20260508054045 | 64 | 135 | 3.0 | 7.0 | 0.00 | 0.00 | 0.00 | 74 | 1008.5 |
| 20260508053544 | 64 | 136 | 2.0 | 3.0 | 0.00 | 0.00 | 0.00 | 75 | 1008.4 |
| 20260508053045 | 64 | 136 | 2.0 | 4.0 | 0.00 | 0.00 | 0.00 | 74 | 1008.4 |
| 20260508052544 | 64 | 136 | 2.0 | 3.0 | 0.00 | 0.00 | 0.00 | 74 | 1008.4 |
| 20260508052044 | 64 | 136 | 1.0 | 3.0 | 0.00 | 0.00 | 0.00 | 74 | 1008.4 |
| 20260508051548 | 64 | 136 | 2.0 | 3.0 | 0.00 | 0.00 | 0.00 | 74 | 1008.3 |
| 20260508051044 | 64 | 136 | 0.0 | 4.0 | 0.00 | 0.00 | 0.00 | 74 | 1008.2 |
| 20260508050544 | 64 | 136 | 1.0 | 4.0 | 0.00 | 0.00 | 0.00 | 74 | 1008.2 |
| 20260508050044 | 64 | 136 | 4.0 | 5.0 | 0.00 | 0.00 | 0.00 | 74 | 1008.1 |
| 20260508045544 | 64 | 134 | 4.0 | 8.0 | 0.00 | 0.00 | 0.00 | 74 | 1008.0 |
| 20260508045044 | 64 | 130 | 8.0 | 9.0 | 0.00 | 0.00 | 0.00 | 74 | 1008.0 |
| 20260508044544 | 64 | 142 | 2.0 | 8.0 | 0.00 | 0.00 | 0.00 | 74 | 1007.9 |
| 20260508044044 | 64 | 137 | 4.0 | 7.0 | 0.00 | 0.00 | 0.00 | 74 | 1007.9 |
| 20260508043547 | 64 | 139 | 4.0 | 7.0 | 0.00 | 0.00 | 0.00 | 74 | 1007.7 |
| 20260508043044 | 64 | 138 | 3.0 | 7.0 | 0.00 | 0.00 | 0.00 | 75 | 1007.8 |
| 20260508042544 | 64 | 97 | 3.0 | 4.0 | 0.00 | 0.00 | 0.00 | 75 | 1007.7 |
| 20260508042044 | 63 | 95 | 3.0 | 4.0 | 0.00 | 0.00 | 0.00 | 75 | 1007.6 |
| 20260508041544 | 63 | 94 | 2.0 | 3.0 | 0.00 | 0.00 | 0.00 | 75 | 1007.6 |
| 20260508041044 | 63 | 94 | 2.0 | 4.0 | 0.00 | 0.00 | 0.00 | 74 | 1007.5 |
| 20260508040544 | 63 | 95 | 0.0 | 3.0 | 0.00 | 0.00 | 0.00 | 74 | 1007.5 |
| 20260508040047 | 63 | 95 | 1.0 | 3.0 | 0.00 | 0.00 | 0.00 | 74 | 1007.5 |
| 20260508035544 | 63 | 94 | 0.0 | 2.0 | 0.00 | 0.00 | 0.00 | 74 | 1007.3 |
| 20260508035044 | 63 | 94 | 2.0 | 4.0 | 0.00 | 0.00 | 0.00 | 74 | 1007.3 |
| 20260508034545 | 63 | 5 | 3.0 | 3.0 | 0.00 | 0.00 | 0.00 | 74 | 1007.2 |
| 20260508034047 | 63 | 5 | 0.0 | 1.0 | 0.00 | 0.00 | 0.00 | 74 | 1007.3 |
| 20260508033547 | 63 | 5 | 0.0 | 0.0 | 0.00 | 0.00 | 0.00 | 74 | 1007.2 |
| 20260508033044 | 63 | 5 | 0.0 | 1.0 | 0.00 | 0.00 | 0.00 | 74 | 1007.2 |
| 20260508032544 | 63 | 5 | 0.0 | 1.0 | 0.00 | 0.00 | 0.00 | 74 | 1007.2 |
| 20260508032044 | 62 | 5 | 0.0 | 3.0 | 0.00 | 0.00 | 0.00 | 74 | 1007.2 |
| 20260508031544 | 62 | 0 | 1.0 | 3.0 | 0.00 | 0.00 | 0.00 | 74 | 1007.2 |
| 20260508031047 | 62 | 305 | 2.0 | 2.0 | 0.00 | 0.00 | 0.00 | 74 | 1007.2 |
| 20260508030544 | 62 | 305 | 0.0 | 2.0 | 0.00 | 0.00 | 0.00 | 74 | 1007.2 |
| 20260508030044 | 62 | 305 | 1.0 | 3.0 | 0.00 | 0.00 | 0.00 | 74 | 1007.2 |
| 20260508025544 | 62 | 311 | 1.0 | 5.0 | 0.00 | 0.00 | 0.00 | 74 | 1007.1 |
| 20260508025047 | 62 | 318 | 0.0 | 6.0 | 0.00 | 0.00 | 0.00 | 74 | 1007.1 |
| 20260508024545 | 62 | 324 | 1.0 | 6.0 | 0.00 | 0.00 | 0.00 | 74 | 1007.1 |
| 20260508024044 | 62 | 315 | 4.0 | 7.0 | 0.00 | 0.00 | 0.00 | 74 | 1007.1 |
| 20260508023544 | 62 | 334 | 4.0 | 6.0 | 0.00 | 0.00 | 0.00 | 74 | 1007.2 |
| 20260508023044 | 62 | 339 | 2.0 | 9.0 | 0.00 | 0.00 | 0.00 | 74 | 1007.1 |
| 20260508022544 | 62 | 324 | 4.0 | 8.0 | 0.00 | 0.00 | 0.00 | 74 | 1007.1 |
| 20260508022045 | 62 | 331 | 6.0 | 6.0 | 0.00 | 0.00 | 0.00 | 74 | 1007.2 |
| 20260508021548 | 62 | 333 | 8.0 | 8.0 | 0.00 | 0.00 | 0.00 | 75 | 1007.1 |
| 20260508021045 | 62 | 324 | 3.0 | 8.0 | 0.00 | 0.00 | 0.00 | 75 | 1007.0 |
| 20260508020544 | 62 | 306 | 2.0 | 8.0 | 0.00 | 0.00 | 0.00 | 75 | 1007.1 |
| 20260508020044 | 62 | 346 | 5.0 | 8.0 | 0.00 | 0.00 | 0.00 | 74 | 1007.2 |
| 20260508015547 | 62 | 346 | 6.0 | 9.0 | 0.00 | 0.00 | 0.00 | 74 | 1007.2 |
| 20260508015044 | 62 | 328 | 4.0 | 11.0 | 0.00 | 0.00 | 0.00 | 74 | 1007.2 |
| 20260508014545 | 62 | 18 | 4.0 | 11.0 | 0.00 | 0.00 | 0.00 | 74 | 1007.2 |
| 20260508014044 | 62 | 355 | 6.0 | 10.0 | 0.00 | 0.00 | 0.00 | 74 | 1007.3 |
| 20260508013544 | 62 | 324 | 4.0 | 9.0 | 0.00 | 0.00 | 0.00 | 75 | 1007.3 |
| 20260508013045 | 62 | 299 | 8.0 | 10.0 | 0.00 | 0.00 | 0.00 | 75 | 1007.2 |
| 20260508012544 | 62 | 338 | 9.0 | 11.0 | 0.00 | 0.00 | 0.00 | 75 | 1007.3 |
| 20260508012044 | 63 | 332 | 5.0 | 10.0 | 0.00 | 0.00 | 0.00 | 75 | 1007.2 |
| 20260508011544 | 63 | 344 | 8.0 | 11.0 | 0.00 | 0.00 | 0.00 | 75 | 1007.3 |
| 20260508011044 | 63 | 307 | 5.0 | 10.0 | 0.00 | 0.00 | 0.00 | 75 | 1007.3 |
| 20260508010544 | 63 | 0 | 6.0 | 9.0 | 0.00 | 0.00 | 0.00 | 75 | 1007.3 |
| 20260508010047 | 63 | 312 | 9.0 | 9.0 | 0.00 | 0.00 | 0.00 | 75 | 1007.3 |
| 20260508005544 | 63 | 0 | 8.0 | 11.0 | 0.00 | 0.00 | 0.00 | 75 | 1007.4 |
| 20260508005044 | 63 | 343 | 9.0 | 12.0 | 0.00 | 0.00 | 0.00 | 75 | 1007.4 |
| 20260508004544 | 63 | 340 | 6.0 | 10.0 | 0.00 | 0.00 | 0.00 | 75 | 1007.5 |
| 20260508004044 | 63 | 323 | 8.0 | 11.0 | 0.00 | 0.00 | 0.00 | 75 | 1007.5 |
| 20260508003544 | 63 | 336 | 6.0 | 11.0 | 0.00 | 0.00 | 0.00 | 76 | 1007.5 |
| 20260508003044 | 63 | 331 | 9.0 | 12.0 | 0.00 | 0.00 | 0.00 | 75 | 1007.5 |
| 20260508002544 | 63 | 331 | 6.0 | 11.0 | 0.00 | 0.00 | 0.00 | 75 | 1007.6 |
| 20260508002044 | 63 | 311 | 9.0 | 12.0 | 0.00 | 0.00 | 0.00 | 75 | 1007.6 |
| 20260508001544 | 63 | 336 | 8.0 | 11.0 | 0.00 | 0.00 | 0.00 | 75 | 1007.7 |
| 20260508001044 | 63 | 318 | 8.0 | 11.0 | 0.00 | 0.00 | 0.00 | 75 | 1007.8 |
| 20260508000544 | 63 | 319 | 4.0 | 11.0 | 0.00 | 0.00 | 0.00 | 76 | 1007.8 |
| 20260508000044 | 63 | 317 | 4.0 | 10.0 | 0.00 | 0.00 | 0.00 | 77 | 1007.9 |
| 20260507235544 | 63 | 315 | 3.0 | 11.0 | 0.00 | 0.00 | 0.00 | 77 | 1007.9 |
| 20260507235044 | 63 | 10 | 8.0 | 9.0 | 0.00 | 0.00 | 0.00 | 77 | 1008.0 |
| 20260507234544 | 64 | 320 | 2.0 | 11.0 | 0.00 | 0.00 | 0.00 | 76 | 1008.1 |
| 20260507234047 | 64 | 326 | 5.0 | 11.0 | 0.00 | 0.00 | 0.00 | 76 | 1008.1 |
| 20260507233547 | 64 | 321 | 8.0 | 11.0 | 0.00 | 0.00 | 0.00 | 77 | 1008.1 |
| 20260507233044 | 64 | 327 | 3.0 | 10.0 | 0.00 | 0.00 | 0.00 | 78 | 1008.3 |
| 20260507232544 | 64 | 337 | 6.0 | 12.0 | 0.00 | 0.00 | 0.00 | 78 | 1008.2 |
| 20260507232044 | 64 | 337 | 5.0 | 11.0 | 0.00 | 0.00 | 0.00 | 78 | 1008.2 |
| 20260507231544 | 64 | 313 | 2.0 | 11.0 | 0.00 | 0.01 | 0.00 | 79 | 1008.3 |
| 20260507231044 | 64 | 313 | 3.0 | 11.0 | 0.00 | 0.01 | 0.00 | 79 | 1008.4 |
| 20260507230544 | 64 | 329 | 5.0 | 10.0 | 0.00 | 0.01 | 0.00 | 79 | 1008.5 |
| 20260507230044 | 64 | 322 | 5.0 | 10.0 | 0.00 | 0.02 | 0.00 | 80 | 1008.6 |
| 20260507225544 | 64 | 11 | 7.0 | 11.0 | 0.00 | 0.02 | 0.00 | 80 | 1008.6 |
| 20260507225044 | 64 | 315 | 9.0 | 11.0 | 0.00 | 0.03 | 0.00 | 80 | 1008.6 |
| 20260507224544 | 63 | 329 | 6.0 | 11.0 | 0.00 | 0.03 | 0.00 | 81 | 1008.7 |
| 20260507224044 | 63 | 323 | 6.0 | 10.0 | 0.00 | 0.03 | 0.00 | 81 | 1008.8 |
| 20260507223544 | 63 | 324 | 8.0 | 10.0 | 0.00 | 0.03 | 0.00 | 81 | 1008.8 |
| 20260507223044 | 63 | 337 | 4.0 | 10.0 | 0.00 | 0.04 | 0.00 | 81 | 1008.8 |
| 20260507222544 | 64 | 331 | 3.0 | 11.0 | 0.00 | 0.04 | 0.00 | 81 | 1008.9 |
| 20260507222044 | 64 | 0 | 4.0 | 9.0 | 0.00 | 0.04 | 0.00 | 80 | 1008.8 |
| 20260507221544 | 64 | 312 | 4.0 | 9.0 | 0.00 | 0.04 | 0.00 | 80 | 1008.8 |
| 20260507221044 | 64 | 328 | 4.0 | 8.0 | 0.00 | 0.04 | 0.00 | 79 | 1008.9 |
| 20260507220544 | 64 | 303 | 5.0 | 11.0 | 0.00 | 0.04 | 0.00 | 79 | 1008.8 |
| 20260507220044 | 65 | 326 | 5.0 | 10.0 | 0.00 | 0.04 | 0.00 | 78 | 1008.8 |
| 20260507215544 | 65 | 332 | 6.0 | 11.0 | 0.00 | 0.04 | 0.00 | 78 | 1008.9 |
| 20260507215044 | 65 | 355 | 5.0 | 10.0 | 0.00 | 0.04 | 0.00 | 77 | 1009.0 |
| 20260507214544 | 65 | 328 | 6.0 | 10.0 | 0.00 | 0.04 | 0.00 | 77 | 1009.0 |
| 20260507214047 | 65 | 296 | 2.0 | 9.0 | 0.00 | 0.04 | 0.00 | 77 | 1009.1 |
| 20260507213544 | 65 | 317 | 4.0 | 9.0 | 0.00 | 0.04 | 0.00 | 77 | 1009.2 |
| 20260507213044 | 65 | 331 | 3.0 | 8.0 | 0.00 | 0.04 | 0.00 | 77 | 1009.2 |
| 20260507212544 | 65 | 321 | 3.0 | 8.0 | 0.00 | 0.04 | 0.00 | 77 | 1009.3 |
| 20260507212044 | 65 | 348 | 4.0 | 9.0 | 0.00 | 0.04 | 0.00 | 77 | 1009.3 |
| 20260507211547 | 65 | 326 | 4.0 | 8.0 | 0.00 | 0.04 | 0.00 | 78 | 1009.4 |
| 20260507211047 | 65 | 300 | 4.0 | 7.0 | 0.00 | 0.04 | 0.00 | 78 | 1009.4 |
| 20260507210544 | 65 | 306 | 5.0 | 5.0 | 0.00 | 0.04 | 0.00 | 77 | 1009.4 |
| 20260507210047 | 65 | 329 | 4.0 | 7.0 | 0.00 | 0.04 | 0.00 | 77 | 1009.5 |
| 20260507205544 | 65 | 336 | 5.0 | 8.0 | 0.00 | 0.04 | 0.00 | 78 | 1009.5 |
| 20260507205044 | 65 | 314 | 3.0 | 5.0 | 0.00 | 0.04 | 0.00 | 78 | 1009.5 |
| 20260507204544 | 65 | 313 | 5.0 | 7.0 | 0.00 | 0.04 | 0.00 | 78 | 1009.5 |
| 20260507204044 | 65 | 306 | 2.0 | 9.0 | 0.00 | 0.04 | 0.00 | 78 | 1009.4 |
| 20260507203545 | 65 | 304 | 4.0 | 9.0 | 0.00 | 0.04 | 0.00 | 78 | 1009.4 |
| 20260507203044 | 65 | 322 | 1.0 | 6.0 | 0.00 | 0.04 | 0.00 | 78 | 1009.5 |
| 20260507202544 | 65 | 309 | 5.0 | 7.0 | 0.00 | 0.04 | 0.00 | 78 | 1009.4 |
| 20260507202044 | 65 | 334 | 4.0 | 8.0 | 0.00 | 0.04 | 0.00 | 79 | 1009.5 |
| 20260507201545 | 64 | 316 | 3.0 | 7.0 | 0.00 | 0.04 | 0.00 | 79 | 1009.5 |
| 20260507201044 | 64 | 337 | 5.0 | 6.0 | 0.00 | 0.04 | 0.00 | 79 | 1009.6 |
| 20260507200547 | 64 | 317 | 3.0 | 8.0 | 0.00 | 0.04 | 0.00 | 79 | 1009.6 |
| 20260507200044 | 64 | 311 | 4.0 | 6.0 | 0.00 | 0.04 | 0.00 | 80 | 1009.6 |
| 20260507195544 | 64 | 280 | 0.0 | 8.0 | 0.00 | 0.04 | 0.00 | 79 | 1009.7 |
| 20260507195044 | 64 | 334 | 4.0 | 9.0 | 0.00 | 0.05 | 0.00 | 79 | 1009.7 |
| 20260507194544 | 64 | 344 | 0.0 | 6.0 | 0.00 | 0.05 | 0.00 | 79 | 1009.7 |
| 20260507194044 | 65 | 317 | 3.0 | 8.0 | 0.00 | 0.05 | 0.00 | 79 | 1009.6 |
| 20260507193544 | 65 | 309 | 3.0 | 10.0 | 0.00 | 0.05 | 0.00 | 79 | 1009.6 |
| 20260507193044 | 64 | 316 | 4.0 | 9.0 | 0.00 | 0.05 | 0.00 | 79 | 1009.6 |
| 20260507192544 | 65 | 326 | 3.0 | 8.0 | 0.00 | 0.05 | 0.00 | 79 | 1009.7 |
| 20260507192044 | 65 | 329 | 5.0 | 8.0 | 0.00 | 0.05 | 0.00 | 79 | 1009.6 |
| 20260507191544 | 65 | 328 | 4.0 | 10.0 | 0.00 | 0.05 | 0.00 | 78 | 1009.6 |
| 20260507191044 | 65 | 355 | 8.0 | 11.0 | 0.00 | 0.05 | 0.00 | 78 | 1009.5 |
| 20260507190544 | 65 | 277 | 7.0 | 12.0 | 0.00 | 0.05 | 0.00 | 78 | 1009.6 |
| 20260507190048 | 65 | 325 | 3.0 | 8.0 | 0.00 | 0.05 | 0.00 | 77 | 1009.6 |
| 20260507185545 | 65 | 331 | 4.0 | 8.0 | 0.00 | 0.05 | 0.00 | 77 | 1009.6 |
| 20260507185044 | 66 | 330 | 2.0 | 8.0 | 0.00 | 0.05 | 0.00 | 76 | 1009.5 |
| 20260507184545 | 66 | 324 | 1.0 | 6.0 | 0.00 | 0.05 | 0.00 | 75 | 1009.6 |
| 20260507184044 | 66 | 274 | 3.0 | 11.0 | 0.00 | 0.05 | 0.00 | 75 | 1009.7 |
| 20260507183544 | 66 | 309 | 5.0 | 8.0 | 0.00 | 0.05 | 0.00 | 75 | 1009.7 |
| 20260507183044 | 66 | 317 | 4.0 | 9.0 | 0.00 | 0.05 | 0.00 | 75 | 1009.6 |
| 20260507182544 | 67 | 274 | 2.0 | 5.0 | 0.00 | 0.05 | 0.00 | 74 | 1009.6 |
| 20260507182044 | 67 | 337 | 1.0 | 6.0 | 0.00 | 0.05 | 0.00 | 74 | 1009.7 |
| 20260507181545 | 67 | 309 | 1.0 | 7.0 | 0.00 | 0.05 | 0.00 | 74 | 1009.7 |
| 20260507181045 | 67 | 321 | 5.0 | 10.0 | 0.00 | 0.05 | 0.00 | 73 | 1009.6 |
| 20260507180544 | 67 | 317 | 10.0 | 9.0 | 0.00 | 0.05 | 0.00 | 73 | 1009.6 |
| 20260507180044 | 67 | 325 | 4.0 | 9.0 | 0.00 | 0.05 | 0.00 | 72 | 1009.7 |
| 20260507175544 | 68 | 304 | 3.0 | 11.0 | 0.00 | 0.05 | 0.00 | 72 | 1009.6 |
| 20260507175044 | 68 | 316 | 6.0 | 12.0 | 0.00 | 0.05 | 0.00 | 71 | 1009.6 |
| 20260507174544 | 68 | 312 | 3.0 | 9.0 | 0.00 | 0.05 | 0.00 | 71 | 1009.7 |
| 20260507174044 | 69 | 276 | 3.0 | 4.0 | 0.00 | 0.05 | 0.00 | 70 | 1009.7 |
| 20260507173544 | 69 | 314 | 1.0 | 4.0 | 0.00 | 0.05 | 0.00 | 70 | 1009.7 |
| 20260507173044 | 69 | 294 | 0.0 | 5.0 | 0.00 | 0.05 | 0.00 | 71 | 1009.7 |
| 20260507172544 | 69 | 259 | 0.0 | 5.0 | 0.00 | 0.05 | 0.00 | 70 | 1009.8 |
| 20260507172044 | 69 | 355 | 0.0 | 5.0 | 0.00 | 0.05 | 0.00 | 70 | 1009.7 |
| 20260507171544 | 69 | 255 | 1.0 | 6.0 | 0.00 | 0.05 | 0.00 | 69 | 1009.6 |
| 20260507171044 | 70 | 275 | 0.0 | 4.0 | 0.00 | 0.05 | 0.00 | 69 | 1009.7 |
| 20260507170544 | 70 | 322 | 1.0 | 6.0 | 0.00 | 0.05 | 0.00 | 68 | 1009.8 |
| 20260507170044 | 70 | 215 | 2.0 | 7.0 | 0.00 | 0.05 | 0.00 | 68 | 1009.8 |
| 20260507165544 | 70 | 278 | 0.0 | 6.0 | 0.00 | 0.05 | 0.00 | 68 | 1009.8 |
| 20260507165044 | 70 | 320 | 0.0 | 4.0 | 0.00 | 0.05 | 0.00 | 68 | 1009.8 |
| 20260507164544 | 71 | 320 | 3.0 | 3.0 | 0.00 | 0.05 | 0.00 | 67 | 1009.8 |
| 20260507164047 | 71 | 240 | 0.0 | 6.0 | 0.00 | 0.05 | 0.00 | 68 | 1009.8 |
| 20260507163547 | 71 | 291 | 1.0 | 3.0 | 0.00 | 0.05 | 0.00 | 69 | 1009.8 |
| 20260507163044 | 71 | 273 | 1.0 | 5.0 | 0.00 | 0.05 | 0.00 | 68 | 1009.7 |
| 20260507162544 | 71 | 266 | 0.0 | 4.0 | 0.00 | 0.05 | 0.00 | 69 | 1009.6 |
| 20260507162044 | 71 | 248 | 1.0 | 4.0 | 0.00 | 0.05 | 0.00 | 69 | 1009.6 |
| 20260507161544 | 71 | 310 | 3.0 | 4.0 | 0.00 | 0.05 | 0.00 | 69 | 1009.7 |
| 20260507161044 | 71 | 323 | 0.0 | 6.0 | 0.00 | 0.05 | 0.00 | 68 | 1009.7 |
| 20260507160544 | 72 | 5 | 1.0 | 5.0 | 0.00 | 0.05 | 0.00 | 69 | 1009.7 |
| 20260507160044 | 72 | 221 | 3.0 | 5.0 | 0.00 | 0.05 | 0.00 | 69 | 1009.6 |
| 20260507155544 | 72 | 113 | 2.0 | 6.0 | 0.00 | 0.05 | 0.00 | 68 | 1009.6 |
| 20260507155044 | 72 | 205 | 3.0 | 5.0 | 0.00 | 0.05 | 0.00 | 69 | 1009.6 |
| 20260507154544 | 72 | 306 | 1.0 | 3.0 | 0.00 | 0.05 | 0.00 | 70 | 1009.6 |
| 20260507154044 | 71 | 336 | 1.0 | 8.0 | 0.00 | 0.05 | 0.00 | 70 | 1009.5 |
| 20260507153544 | 71 | 305 | 7.0 | 8.0 | 0.00 | 0.05 | 0.00 | 72 | 1009.6 |
| 20260507153044 | 71 | 237 | 0.0 | 5.0 | 0.00 | 0.05 | 0.00 | 72 | 1009.6 |
| 20260507152544 | 70 | 244 | 1.0 | 4.0 | 0.00 | 0.05 | 0.00 | 72 | 1009.6 |
| 20260507152044 | 70 | 222 | 2.0 | 5.0 | 0.00 | 0.05 | 0.00 | 73 | 1009.6 |
| 20260507151547 | 70 | 12 | 1.0 | 6.0 | 0.00 | 0.05 | 0.00 | 73 | 1009.6 |
| 20260507151044 | 70 | 308 | 0.0 | 3.0 | 0.00 | 0.05 | 0.00 | 73 | 1009.7 |
| 20260507150544 | 70 | 223 | 1.0 | 5.0 | 0.00 | 0.05 | 0.00 | 72 | 1009.8 |
| 20260507150044 | 71 | 288 | 2.0 | 7.0 | 0.00 | 0.05 | 0.00 | 72 | 1009.9 |
| 20260507145544 | 71 | 149 | 1.0 | 9.0 | 0.00 | 0.05 | 0.00 | 71 | 1009.9 |
| 20260507145044 | 71 | 188 | 4.0 | 7.0 | 0.00 | 0.05 | 0.00 | 71 | 1009.8 |
| 20260507144544 | 71 | 188 | 1.0 | 7.0 | 0.00 | 0.05 | 0.00 | 70 | 1009.9 |
| 20260507144047 | 72 | 150 | 3.0 | 10.0 | 0.00 | 0.05 | 0.00 | 69 | 1009.9 |
| 20260507143544 | 72 | 195 | 7.0 | 6.0 | 0.00 | 0.05 | 0.00 | 69 | 1009.9 |
| 20260507143047 | 72 | 335 | 1.0 | 5.0 | 0.00 | 0.05 | 0.00 | 69 | 1009.9 |
| 20260507142544 | 72 | 42 | 1.0 | 6.0 | 0.00 | 0.05 | 0.00 | 69 | 1009.9 |
| 20260507142044 | 72 | 24 | 1.0 | 4.0 | 0.00 | 0.05 | 0.00 | 69 | 1009.9 |
| 20260507141544 | 72 | 34 | 1.0 | 3.0 | 0.00 | 0.05 | 0.00 | 69 | 1009.9 |
| 20260507141044 | 71 | 246 | 3.0 | 5.0 | 0.00 | 0.05 | 0.00 | 69 | 1010.0 |
| 20260507140544 | 71 | 141 | 1.0 | 6.0 | 0.00 | 0.05 | 0.00 | 69 | 1010.2 |
| 20260507140044 | 71 | 186 | 0.0 | 6.0 | 0.00 | 0.05 | 0.00 | 69 | 1010.4 |
| 20260507135547 | 71 | 269 | 4.0 | 4.0 | 0.00 | 0.05 | 0.00 | 70 | 1010.4 |
| 20260507135044 | 71 | 95 | 2.0 | 5.0 | 0.00 | 0.05 | 0.00 | 71 | 1010.5 |
| 20260507134544 | 70 | 289 | 1.0 | 6.0 | 0.00 | 0.05 | 0.00 | 71 | 1010.6 |
| 20260507134044 | 70 | 168 | 1.0 | 4.0 | 0.00 | 0.05 | 0.00 | 71 | 1010.8 |
| 20260507133544 | 70 | 126 | 2.0 | 8.0 | 0.00 | 0.05 | 0.00 | 72 | 1010.9 |
| 20260507133047 | 69 | 179 | 3.0 | 4.0 | 0.00 | 0.05 | 0.00 | 71 | 1010.9 |
| 20260507132547 | 69 | 62 | 2.0 | 6.0 | 0.00 | 0.05 | 0.00 | 71 | 1011.0 |
| 20260507132044 | 69 | 350 | 0.0 | 6.0 | 0.00 | 0.05 | 0.00 | 71 | 1011.1 |
| 20260507131544 | 69 | 184 | 1.0 | 8.0 | 0.00 | 0.05 | 0.00 | 71 | 1011.0 |
| 20260507131044 | 70 | 355 | 1.0 | 10.0 | 0.00 | 0.05 | 0.00 | 70 | 1011.1 |
| 20260507130544 | 70 | 173 | 5.0 | 7.0 | 0.00 | 0.05 | 0.00 | 70 | 1011.2 |
| 20260507130044 | 70 | 180 | 1.0 | 6.0 | 0.00 | 0.05 | 0.00 | 70 | 1011.2 |
| 20260507125544 | 70 | 36 | 1.0 | 6.0 | 0.00 | 0.05 | 0.00 | 70 | 1011.3 |
| 20260507125044 | 70 | 302 | 1.0 | 12.0 | 0.00 | 0.05 | 0.00 | 70 | 1011.3 |
| 20260507124544 | 70 | 181 | 2.0 | 12.0 | 0.00 | 0.05 | 0.00 | 70 | 1011.3 |
| 20260507124044 | 71 | 184 | 5.0 | 10.0 | 0.00 | 0.05 | 0.00 | 69 | 1011.3 |
| 20260507123544 | 71 | 265 | 2.0 | 11.0 | 0.00 | 0.05 | 0.00 | 69 | 1011.2 |
| 20260507123044 | 71 | 215 | 0.0 | 8.0 | 0.00 | 0.05 | 0.00 | 68 | 1011.3 |
| 20260507122544 | 71 | 244 | 4.0 | 8.0 | 0.00 | 0.05 | 0.00 | 68 | 1011.2 |